Whidbey Island, WA
on Thursday, November 8, 2012

Thursday
Previous Day Next Day
Daily Summary
 ActualAverageRecord
Temperature
Mean Temperature °F °F  
Max Temperature 51°F 51°F 62°F (2008)
Min Temperature 37°F 38°F 34°F (2003)
Degree Days
Heating Degree Days 21    
Moisture
Dew Point 33°F   
Average Humidity 66    
Maximum Humidity 83    
Minimum Humidity 49    
Precipitation
Precipitation 0.00 in in in ()
Wind
Wind Speed 8 mph   
Max Wind Speed 17 mph   
Max Gust Speed 24 mph   
Visibility 10 miles   
Events     
Averages and records for this station are not official NWS values.
Key: T is trace of precipitation, MM is missing value
Source: NWS Daily Summary
Seasonal Weather Averages
Time(PST)TemperatureDew PointHumidity Pressure Visibility Wind DirectionWind SpeedGust SpeedPrecipitationEvents Conditions
12:56 AM 41.0°F 35.1°F 79% 29.96 in 10.0 miles East 6.9 mph - N/A   Scattered Clouds
1:56 AM 39.9°F 35.1°F 83% 29.95 in 10.0 miles ENE 8.1 mph - N/A   Partly Cloudy
2:56 AM 39.9°F 34.0°F 79% 29.94 in 10.0 miles ENE 10.4 mph - N/A   Partly Cloudy
3:56 AM 39.0°F 33.1°F 79% 29.92 in 10.0 miles ENE 5.8 mph - N/A   Partly Cloudy
4:56 AM 39.9°F 34.0°F 79% 29.91 in 10.0 miles East 10.4 mph - N/A   Partly Cloudy
5:56 AM 39.9°F 33.1°F 77% 29.91 in 10.0 miles ENE 5.8 mph - N/A   Scattered Clouds
6:56 AM 37.0°F 32.0°F 82% 29.91 in 10.0 miles North 4.6 mph - N/A   Mostly Cloudy
7:56 AM 37.9°F 33.1°F 83% 29.91 in 10.0 miles Calm Calm - N/A   Mostly Cloudy
8:56 AM 43.0°F 37.0°F 80% 29.90 in 10.0 miles Calm Calm - N/A   Scattered Clouds
9:56 AM 46.9°F 36.0°F 66% 29.89 in 10.0 miles North 3.5 mph - N/A   Scattered Clouds
10:56 AM 48.9°F 35.1°F 59% 29.88 in 10.0 miles North 9.2 mph - N/A   Scattered Clouds
11:56 AM 51.1°F 33.1°F 50% 29.86 in 10.0 miles North 6.9 mph - N/A   Scattered Clouds
12:56 PM 50.0°F 34.0°F 54% 29.87 in 10.0 miles NNW 12.7 mph - N/A   Scattered Clouds
1:56 PM 50.0°F 36.0°F 59% 29.86 in 10.0 miles NNW 15.0 mph - N/A   Scattered Clouds
2:56 PM 50.0°F 37.0°F 61% 29.85 in 10.0 miles NW 15.0 mph - N/A   Scattered Clouds
3:56 PM 48.0°F 37.0°F 66% 29.85 in 10.0 miles NNW 17.3 mph 24.2 mph N/A   Scattered Clouds
4:56 PM 46.9°F 36.0°F 66% 29.84 in 10.0 miles North 10.4 mph - N/A   Scattered Clouds
5:56 PM 46.9°F 28.9°F 50% 29.84 in 10.0 miles North 12.7 mph - N/A   Scattered Clouds
6:56 PM 46.0°F 32.0°F 58% 29.85 in 10.0 miles North 12.7 mph - N/A   Scattered Clouds
7:56 PM 46.0°F 28.9°F 51% 29.84 in 10.0 miles North 15.0 mph - N/A   Scattered Clouds
8:56 PM 46.0°F 28.0°F 50% 29.85 in 10.0 miles North 15.0 mph - N/A   Scattered Clouds
9:56 PM 45.0°F 27.0°F 49% 29.85 in 10.0 miles North 12.7 mph - N/A   Partly Cloudy
10:56 PM 42.1°F 27.0°F 55% 29.85 in 10.0 miles North 9.2 mph - N/A   Partly Cloudy
11:56 PM 37.0°F 27.0°F 67% 29.86 in 10.0 miles ENE 3.5 mph - N/A   Partly Cloudy
Moon Phase
Nov. 08 Nov. 13 Nov. 20 Nov. 28 Dec. 06
Sunrise:07:08 AM (PST) Moon Rise:12:42 AM (PST)11/8
Sunset:04:39 PM (PST) Moon Set:01:47 PM (PST)11/8

Copyright © 2014 The Weather Underground, Inc.